FW4653 Weather Reports


time (UTC)temp
F
wind
direction
speed
knots
gust
knots
rain 1hr
in
rain 24hr
in
rain mn
in
humidity
%
barometer
mb
20260906220054 98 139 3.5 7.8 0.00 0.00 0.00 44 1010.2
20260906214518 98 145 2.6 9.6 0.00 0.00 0.00 42 1010.5
20260906213046 99 146 1.7 4.3 0.00 0.00 0.00 42 1010.6
20260906211515 97 121 1.7 7.8 0.00 0.00 0.00 46 1010.8
20260906210036 98 130 0.9 7.0 0.00 0.00 0.00 44 1011.2
20260906204552 98 121 1.7 7.8 0.00 0.00 0.00 46 1011.4
20260906203026 97 118 2.6 7.0 0.00 0.00 0.00 45 1011.5
20260906201636 98 103 5.2 8.7 0.00 0.00 0.00 45 1011.8
20260906201501 98 107 4.3 8.7 0.00 0.00 0.00 46 1011.8
20260906200036 96 107 1.7 7.0 0.00 0.00 0.00 46 1011.9
20260906194603 98 337 3.5 7.8 0.00 0.00 0.00 47 1011.9
20260906193033 97 113 2.6 11.3 0.00 0.00 0.00 46 1012.2
20260906191559 96 138 1.7 8.7 0.00 0.00 0.00 47 1012.4
20260906190017 96 134 1.7 9.6 0.00 0.00 0.00 47 1012.3
20260906184543 96 128 3.5 8.7 0.00 0.00 0.00 46 1012.4
20260906183007 96 128 4.3 9.6 0.00 0.00 0.00 46 1012.7
20260906181559 96 98 3.5 8.7 0.00 0.00 0.00 48 1012.8
20260906180003 95 113 5.2 9.6 0.00 0.00 0.00 50 1013.1
20260906174537 96 135 2.6 8.7 0.00 0.00 0.00 51 1013.3
20260906173007 96 126 2.6 7.0 0.00 0.00 0.00 51 1013.5
20260906171517 94 33 0.9 8.7 0.00 0.00 0.00 53 1013.6
20260906170051 94 138 2.6 7.8 0.00 0.00 0.00 53 1013.8
20260906164600 94 189 3.5 7.0 0.00 0.00 0.00 54 1014.0
20260906164501 94 121 2.6 7.0 0.00 0.00 0.00 54 1014.0
20260906163051 94 106 0.0 4.3 0.00 0.00 0.00 58 1014.2
20260906161512 93 34 0.9 6.1 0.00 0.00 0.00 55 1014.1
20260906160033 93 169 0.9 6.1 0.00 0.00 0.00 57 1014.1
20260906154505 92 131 0.9 3.5 0.00 0.00 0.00 59 1013.9
20260906153037 91 130 0.9 4.3 0.00 0.00 0.00 63 1013.8
20260906151551 89 137 0.9 2.6 0.00 0.00 0.00 65 1013.6
20260906150030 89 136 0.0 2.6 0.00 0.00 0.00 67 1013.6
20260906144541 88 142 0.0 2.6 0.00 0.00 0.00 68 1013.5
20260906143013 86 145 0.9 2.6 0.00 0.00 0.00 70 1013.4
20260906141542 84 146 1.7 3.5 0.00 0.00 0.00 74 1013.5
20260906140104 83 148 0.0 2.6 0.00 0.00 0.00 75 1013.6
20260906134531 82 360 1.7 3.5 0.00 0.00 0.00 77 1013.7
20260906133042 81 360 0.0 0.9 0.00 0.00 0.00 79 1014.0
20260906131517 80 360 0.9 2.6 0.00 0.00 0.00 81 1013.7
20260906130030 79 360 0.9 2.6 0.00 0.00 0.00 83 1013.6
20260906124508 78 360 0.0 0.0 0.00 0.00 0.00 85 1013.4
20260906123046 77 360 0.0 0.0 0.00 0.00 0.00 85 1013.5
20260906121607 77 360 0.0 0.0 0.00 0.00 0.00 85 1013.1
20260906120036 77 360 0.0 0.0 0.00 0.00 0.00 84 1013.2
20260906114600 78 360 0.0 0.0 0.00 0.00 0.00 84 1013.1
20260906113005 77 360 0.0 0.0 0.00 0.00 0.00 85 1013.3
20260906111525 77 360 0.0 0.0 0.00 0.00 0.00 85 1012.7
20260906110054 77 360 0.0 0.0 0.00 0.00 0.00 84 1012.5
20260906104533 78 360 0.0 0.0 0.00 0.00 0.00 84 1012.3
20260906103006 77 360 0.0 0.0 0.00 0.00 0.00 84 1012.2
20260906101526 78 360 0.0 0.0 0.00 0.00 0.00 83 1012.3
20260906100100 78 360 0.0 0.0 0.00 0.00 0.00 83 1012.0
20260906100002 78 360 0.0 0.0 0.00 0.00 0.00 83 1012.1
20260906094513 78 360 0.0 0.0 0.00 0.00 0.00 82 1012.1
20260906093032 78 360 0.0 0.0 0.00 0.00 0.00 81 1012.1
20260906091550 79 360 0.0 0.0 0.00 0.00 0.00 79 1011.8
20260906090028 80 360 0.0 0.0 0.00 0.00 0.00 78 1011.6
20260906084544 81 360 0.0 0.0 0.00 0.00 0.00 77 1011.8
20260906083018 81 360 0.0 0.0 0.00 0.00 0.00 77 1011.7
20260906081540 81 360 0.0 2.6 0.00 0.00 0.00 75 1011.3
20260906080006 82 360 0.0 0.0 0.00 0.00 0.00 75 1011.3
20260906074522 82 360 0.0 0.0 0.00 0.00 0.00 75 1011.6
20260906073051 82 360 0.0 0.0 0.00 0.00 0.00 74 1011.9
20260906071507 83 360 0.0 2.6 0.00 0.00 0.00 73 1011.9
20260906070045 82 360 0.9 2.6 0.00 0.00 0.00 74 1011.8
20260906064551 82 360 0.0 0.0 0.00 0.00 0.00 74 1011.8
20260906063033 82 360 0.0 0.0 0.00 0.00 0.00 74 1012.2
20260906061547 83 360 0.0 0.0 0.00 0.00 0.00 73 1011.9
20260906060031 83 360 0.0 0.0 0.00 0.00 0.00 71 1012.0
20260906054548 83 360 0.0 0.0 0.00 0.00 0.00 70 1012.1
20260906053016 84 360 0.0 0.0 0.00 0.00 0.00 69 1012.1
20260906051553 84 360 0.0 0.0 0.00 0.00 0.00 68 1012.3
20260906050015 84 360 0.0 0.0 0.00 0.00 0.00 68 1012.2
20260906044528 85 360 0.0 1.7 0.00 0.00 0.00 67 1012.0
20260906043102 85 360 0.9 2.6 0.00 0.00 0.00 65 1012.0
20260906041525 86 360 0.9 2.6 0.00 0.00 0.00 65 1011.9
20260906040043 86 360 0.9 3.5 0.00 0.00 0.00 64 1011.9
20260906034516 87 360 0.9 3.5 0.00 0.00 0.00 63 1012.1
20260906033036 87 135 1.7 6.1 0.00 0.00 0.00 62 1011.9
20260906031509 88 144 2.6 6.1 0.00 0.00 0.00 62 1012.0
20260906030024 88 149 3.5 7.8 0.00 0.00 0.00 62 1011.8
20260906024556 88 129 3.5 7.0 0.00 0.00 0.00 61 1011.8
20260906023043 89 132 2.6 7.8 0.00 0.00 0.00 59 1011.5
20260906021544 90 145 1.7 7.8 0.00 0.00 0.00 57 1011.4
20260906020018 91 158 3.5 10.4 0.00 0.00 0.00 54 1011.0
20260906014556 90 130 0.0 0.0 0.00 0.00 0.00 52 1010.7
20260906013015 91 130 0.0 0.0 0.00 0.00 0.00 50 1010.5
20260906011530 92 130 0.0 0.0 0.00 0.00 0.00 51 1010.4
20260906010006 93 130 0.0 3.5 0.00 0.00 0.00 47 1010.2
20260906004520 94 129 0.9 2.6 0.00 0.00 0.00 46 1010.1
20260906003042 95 128 0.9 3.5 0.00 0.00 0.00 46 1010.0
20260906001552 96 125 0.9 3.5 0.00 0.00 0.00 44 1010.2
20260906000032 96 131 2.6 6.1 0.00 0.00 0.00 42 1010.2
20260905234555 97 132 1.7 4.3 0.00 0.00 0.00 42 1009.9
20260905233023 97 122 1.7 6.1 0.00 0.00 0.00 42 1009.9
20260905231548 98 119 0.9 3.5 0.00 0.00 0.00 41 1009.8
20260905230020 98 109 0.0 3.5 0.00 0.00 0.00 41 1009.9
20260905224547 99 90 0.0 6.1 0.00 0.00 0.00 41 1009.9
20260905223018 99 129 0.9 6.1 0.00 0.00 0.00 40 1010.0
20260905221541 99 125 2.6 7.8 0.00 0.00 0.00 41 1010.2